Volver al catálogo

COSMOS 1830

ActivoMilitarPO
NORAD 17585·PAYLOAD·🇷🇺 Russia

Lanzado Mar 13, 1987 desde Plesetsk Cosmodrome

Loading…

Próximos Pases (próximas 24 horas)

TLE

ActualizadoSource: Space-Track

Época: Sep 14, 2026, 15:17 UTC

1 17585U 87026D   26257.63741118  .00000044  00000-0  18521-3 0  9990
2 17585  82.5637 148.6994 0005950  33.7704 338.7731 12.63621527821944

Sigue COSMOS 1830 en tiempo real con AllMySat

Download on the App Store